Terminal Aerodrome Forecast
Issued by NWS La Crosse, WI

Home | Current Version | Previous Version | Text Only | Print | Product List | Glossary On
Versions: 1 2 3 4 5 6 7 8 9 10 11 12 13 14 15 16 17 18 19 20 21 22 23 24 25 26 27 28 29 30 31 32 33 34 35 36 37 38 39 40
000
FTUS43 KARX 081130
TAFRST
TAF
KRST 081130Z 0812/0912 32020G28KT 5SM -SN BLSN OVC025
      TEMPO 0812/0814 2SM -SN BLSN OVC015
     FM081800 32020G28KT P6SM -SN OVC015
     FM090500 33017G26KT P6SM OVC018=

USA.gov is the U.S. government's official web portal to all federal, state and local government web resources and services.